STARLINK-31370, 59520

Orbit data source: Space-Track

STARLINK-31370, 59520 is a payload satellite owned by SpaceX/Seattle (US) in LEO that was launched on Wed, 17 Apr 2024 UTC via an FALCON 9 launch vehicle from the Air Force Eastern Test Range (AFETR). Payload-class satellites include a variety of spacecraft equipped with specific instruments for various scientific and technological missions. These include communications satellites like Starlink; space stations such as the ISS; scientific satellites like the Hubble; Earth observation satellites from companies like Planet Labs, Umbra, and HawkEye 360; GPS; miniature CubeSats for education and research; and military/defense satellites.

Loading next visibility...
Identifier
59520, 2024-073K
Orbit
LEO
Country
Flag of USUS
Related business
Manufacturer
SpaceX/Seattle
Mission
Operational Commercial Communications
Bus & Motor
STARLINK V2M, Unknown motor
Mass
730 kg wet, ~700 kg dry
Launch date (UTC)
2024-04-17 (2 years ago)
Launch vehicle
FALCON 9
Launch site
Air Force Eastern Test Range (AFETR)
Object type
Payload
Rocket body
Debris
Shape & HBR
Box + 2 Pan, 17.7 m
Radar Cross Section
33.884 m², Large (>1 m²)

Expand to show TLE details & history
Last TLE update: 2 days ago

TLE from 2 days ago
0 STARLINK-31370
1 59520U 24073K   26171.15232430  .00002610  00000-0  10427-3 0  9990
2 59520  43.0018  99.5599 0000990 258.4745 101.5995 15.27595811121848
Epoch: 2026-06-20T03:39Z
TLE epoch observation values (Epoch: 2026-06-20T03:39:20.819Z)
Latitude
-0.00006°
Longitude
136.35205°
Altitude
482.914 km
Speed
7.626 km/s
True Right ascension
06h 38m 14s
True Declination
0° 00' 00"
Sunlit
Object was in daylight at epoch
Visualization orbit readout
Latitude
Unknown
Longitude
Unknown
Altitude
Unknown
Speed
Unknown
Apparent Right ascension
Unknown
Apparent Declination
Unknown
Sunlit
N/A
Visualization observer readout
Local Sidereal Time
14:09:22
Azimuth
Unknown
Elevation
Unknown
Doppler factor
Unknown
Orbital elements
Apogee altitude
485.626 km
Perigee altitude
484.267 km
Semi-major axis
6,863.084 km
Eccentricity
0.0001
Inclination
43.0018°
RAAN
99.5599°
Arg. of periapsis
258.4745°
True anomaly
101.61061°
Mean anomaly
101.5995°
Eccentric anomaly
101.60506°
Mean motion
3.81737 °/min
Orbital period
94.31 mins
BSTAR
0.00010427
Loading maneuver chart data...
Computing Atmospheric mass density...

Documentation

Showing up to 5 results
|